Location: Spring Creek
(38.2870°N, 100.2160°W)
Time: 03:41:27
(UTC+00:00)

Cosmos 2297 Rocket - Pass Details

Date: 08 May 2021
Orbit: 838 x 845 km, 71.0° (Epoch: 22 June)

Event Time Altitude Azimuth Distance (km) Brightness Sun altitude
Rises 10:17:31 0° 328° (NNW) 3,408 5.4 -14.3°
Reaches altitude 10° 10:20:07 10° 321° (NW) 2,470 4.6 -13.8°
Maximum altitude 10:25:16 37° 255° (WSW) 1,290 2.7 -13.0°
Drops below altitude 10° 10:30:24 10° 190° (S) 2,456 4.2 -12.2°
Sets 10:32:59 0° 182° (S) 3,387 5.0 -11.8°
